Location: Heathcote
(40.9845°N, 73.7746°W)
Time: 13:12:24
(UTC+00:00)

CZ-4B R/B - Pass Details

Date: 29 October 2020
Orbit: 388 x 461 km, 97.6° (Epoch: 01 December)

Event Time Altitude Azimuth Distance (km) Brightness Sun altitude
Rises 23:21:03 0° 355° (N) 2,375 5.1 -16.9°
Reaches altitude 10° 23:23:31 10° 335° (NNW) 1,489 4.3 -17.4°
Maximum altitude 23:25:41 17° 292° (WNW) 1,106 4.2 -17.8°
Drops below altitude 10° 23:27:50 10° 248° (WSW) 1,456 5.1 -18.2°
Sets 23:30:12 0° 228° (SW) 2,297 5.8 -18.7°
